To NAV CANADA Home Page Login to a new session Search on AWWS site Feedback and Comments Disclaimer Vers la page française équivalente Tips FAQ What's new on the site To the Forecasts and Observations / NOTAM section To "File a Flight Plan" website Publications and other links Update of the User's profile FIC Telephone Numbers My Weather Data Folder Route Weather Data Regional Weather Data Local Weather Data To the Forecasts and Observations / NOTAM section
Request Generated 05/25/2017 at 01:12:32 UTC . Weather information available at that time is displayed.

METAR/TAF

NAUJAAT/NU    

LWIS CYUT 250100Z AUTO 11018G24KT M01/M03 A2991=
LWIS CYUT 250000Z AUTO 13019KT M01/M02 A2990=
LWIS CYUT 242300Z AUTO 12019KT M01/M02 A2989=

*** REMARK        : Forecast period has ended; this was the last TAF issued
*** REMARQUE : La période de prévision est échue; ceci était le dernier TAF qui a été émis
TAF CYUT 241838Z 2419/2422 12020KT P6SM OVC008 TEMPO 2419/2422 4SM
-SG BR OVC004
RMK NXT FCST WILL BE ISSUED AT 251345Z=
Your time UTC time
Weather data provided by Environment Canada and NAV CANADA